timestamp,wind_dir_avg,wind_spd_avg,wind_spd_max_dir,wind_spd_gust,battery_voltage,lat,long
2022-05-14 00:04:00+00:00,354.0,4.95,359.0,5.45,12.97,47.59359,-54.27349
2022-05-14 00:14:01+00:00,48.0,4.06,41.0,5.14,12.49,47.59359,-54.27349
2022-05-14 00:24:01+00:00,27.0,5.4,41.0,6.23,12.49,47.59359,-54.27349
2022-05-14 00:34:01+00:00,27.0,6.58,21.0,7.61,12.49,47.59359,-54.27349
2022-05-14 00:44:01+00:00,28.0,6.67,29.0,7.26,12.49,47.59359,-54.27349
2022-05-14 00:54:01+00:00,35.0,6.46,49.0,7.91,12.49,47.59359,-54.27349
2022-05-14 01:04:01+00:00,34.0,7.39,35.0,8.42,12.49,47.59359,-54.27349
2022-05-14 01:14:01+00:00,40.0,8.29,39.0,9.45,12.41,47.59359,-54.27349
2022-05-14 01:24:01+00:00,36.0,7.95,41.0,8.86,12.41,47.59359,-54.27349
2022-05-14 01:34:01+00:00,40.0,7.43,48.0,8.47,12.41,47.59359,-54.27349
2022-05-14 01:44:01+00:00,46.0,7.66,47.0,8.26,12.41,47.59359,-54.27349
2022-05-14 01:54:01+00:00,45.0,7.5,45.0,8.47,12.41,47.59359,-54.27349
2022-05-14 02:04:01+00:00,55.0,6.84,53.0,7.44,12.41,47.59359,-54.27349
2022-05-14 02:14:01+00:00,46.0,5.51,54.0,7.07,12.41,47.59359,-54.27349
2022-05-14 02:24:01+00:00,35.0,5.82,48.0,7.74,12.41,47.59359,-54.27349
2022-05-14 02:34:01+00:00,55.0,6.76,55.0,7.33,12.41,47.59359,-54.27349
2022-05-14 02:44:01+00:00,61.0,6.69,62.0,7.06,12.41,47.59359,-54.27349
2022-05-14 02:54:01+00:00,62.0,6.41,61.0,6.68,12.41,47.59359,-54.27349
2022-05-14 03:04:01+00:00,61.0,7.01,60.0,7.3,12.41,47.59359,-54.27349
2022-05-14 03:14:00+00:00,65.0,6.67,66.0,6.92,12.41,47.59359,-54.27349
2022-05-14 03:24:00+00:00,48.0,4.75,59.0,6.15,12.41,47.59359,-54.27349
2022-05-14 03:34:00+00:00,58.0,6.44,60.0,6.71,12.41,47.59359,-54.27349
2022-05-14 03:44:00+00:00,56.0,7.03,58.0,7.45,12.41,47.59359,-54.27349
2022-05-14 03:54:00+00:00,62.0,6.62,61.0,7.09,12.41,47.59359,-54.27349
2022-05-14 04:04:00+00:00,65.0,6.09,66.0,6.47,12.41,47.59359,-54.27349
2022-05-14 04:14:01+00:00,67.0,6.37,68.0,6.62,12.41,47.59359,-54.27349
2022-05-14 04:24:01+00:00,52.0,5.41,60.0,7.39,12.41,47.59359,-54.27349
2022-05-14 04:34:01+00:00,64.0,6.61,64.0,7.13,12.41,47.59359,-54.27349
2022-05-14 04:44:01+00:00,60.0,6.05,61.0,7.0,12.41,47.59359,-54.27349
2022-05-14 04:54:01+00:00,61.0,6.4,61.0,6.98,12.41,47.59359,-54.27349
2022-05-14 05:04:01+00:00,44.0,4.84,53.0,5.97,12.41,47.59359,-54.27349
2022-05-14 05:14:00+00:00,55.0,4.8,65.0,6.32,12.41,47.59359,-54.27349
2022-05-14 05:24:00+00:00,47.0,4.16,47.0,4.69,12.41,47.59359,-54.27349
2022-05-14 05:34:00+00:00,46.0,4.95,51.0,5.98,12.41,47.59359,-54.27349
2022-05-14 05:44:00+00:00,40.0,4.18,54.0,5.58,12.41,47.59359,-54.27349
2022-05-14 05:54:00+00:00,57.0,4.84,58.0,5.46,12.41,47.59359,-54.27349
2022-05-14 06:04:00+00:00,75.0,5.2,75.0,6.89,12.41,47.59359,-54.27349
2022-05-14 06:14:01+00:00,76.0,4.62,72.0,6.84,12.33,47.59359,-54.27349
2022-05-14 06:24:01+00:00,70.0,4.94,72.0,6.99,12.33,47.59359,-54.27349
2022-05-14 06:34:01+00:00,81.0,4.34,85.0,6.71,12.33,47.59359,-54.27349
2022-05-14 06:44:01+00:00,80.0,5.62,74.0,6.49,12.33,47.59359,-54.27349
2022-05-14 06:54:01+00:00,146.0,2.31,113.0,4.31,12.33,47.59359,-54.27349
2022-05-14 07:04:01+00:00,228.0,4.45,235.0,5.52,12.33,47.59359,-54.27349
2022-05-14 07:14:00+00:00,216.0,2.22,244.0,4.37,12.33,47.59359,-54.27349
2022-05-14 07:24:00+00:00,170.0,1.23,165.0,1.57,12.33,47.59359,-54.27349
2022-05-14 07:34:00+00:00,86.0,3.78,90.0,5.63,12.33,47.59359,-54.27349
2022-05-14 07:44:00+00:00,90.0,5.74,80.0,6.64,12.33,47.59359,-54.27349
2022-05-14 07:54:00+00:00,98.0,4.82,107.0,6.55,12.33,47.59359,-54.27349
2022-05-14 08:04:00+00:00,125.0,7.1,125.0,7.82,12.33,47.59359,-54.27349
2022-05-14 08:14:01+00:00,113.0,5.38,109.0,6.94,12.25,47.59359,-54.27349
2022-05-14 08:24:01+00:00,88.0,4.67,90.0,6.47,12.25,47.59359,-54.27349
2022-05-14 08:34:01+00:00,105.0,6.38,105.0,6.75,12.25,47.59359,-54.27349
2022-05-14 08:44:01+00:00,91.0,4.94,98.0,6.62,12.25,47.59359,-54.27349
2022-05-14 08:54:01+00:00,86.0,5.79,73.0,6.76,12.25,47.59359,-54.27349
2022-05-14 09:04:01+00:00,92.0,4.88,84.0,6.66,12.25,47.59359,-54.27349
2022-05-14 09:14:00+00:00,96.0,3.78,89.0,6.66,12.25,47.59359,-54.27349
2022-05-14 09:24:00+00:00,83.0,2.66,82.0,5.65,12.25,47.59359,-54.27349
2022-05-14 09:34:00+00:00,96.0,3.96,101.0,6.76,12.25,47.59359,-54.27349
2022-05-14 09:44:00+00:00,95.0,4.29,96.0,6.2,12.25,47.59359,-54.27349
2022-05-14 09:54:00+00:00,94.0,2.07,91.0,4.89,12.25,47.59359,-54.27349
2022-05-14 10:04:00+00:00,88.0,4.51,93.0,5.6,12.25,47.59359,-54.27349
2022-05-14 10:14:01+00:00,85.0,3.68,78.0,5.49,12.25,47.59359,-54.27349
2022-05-14 10:24:01+00:00,73.0,2.28,82.0,4.97,12.25,47.59359,-54.27349
2022-05-14 10:34:01+00:00,322.0,0.4,329.0,0.69,12.25,47.59359,-54.27349
2022-05-14 10:44:01+00:00,224.0,0.67,248.0,1.16,12.25,47.59359,-54.27349
2022-05-14 10:54:01+00:00,76.0,0.42,76.0,0.61,12.25,47.59359,-54.27349
2022-05-14 11:04:01+00:00,239.0,0.29,236.0,0.4,12.25,47.59359,-54.27349
2022-05-14 11:14:01+00:00,264.0,0.4,254.0,0.46,12.25,47.59359,-54.27349
2022-05-14 11:24:01+00:00,225.0,1.05,235.0,1.62,12.25,47.59359,-54.27349
2022-05-14 11:34:01+00:00,24.0,0.34,16.0,0.55,12.25,47.59359,-54.27349
2022-05-14 11:44:01+00:00,38.0,1.22,86.0,4.03,12.25,47.59359,-54.27349
2022-05-14 11:54:01+00:00,108.0,6.0,112.0,7.21,12.25,47.59359,-54.27349
2022-05-14 12:04:01+00:00,89.0,5.18,93.0,6.72,12.25,47.59359,-54.27349
2022-05-14 12:14:00+00:00,76.0,4.04,82.0,6.38,12.41,47.59359,-54.27349
2022-05-14 12:24:00+00:00,73.0,3.49,79.0,6.35,12.41,47.59359,-54.27349
2022-05-14 12:34:00+00:00,68.0,3.27,86.0,5.28,12.41,47.59359,-54.27349
2022-05-14 12:44:00+00:00,66.0,4.52,87.0,9.64,12.41,47.59359,-54.27349
2022-05-14 12:54:00+00:00,62.0,3.72,62.0,6.76,12.41,47.59359,-54.27349
2022-05-14 13:04:00+00:00,60.0,4.28,77.0,9.63,12.41,47.59359,-54.27349
2022-05-14 13:14:00+00:00,69.0,7.28,71.0,7.84,13.6,47.59359,-54.27349
2022-05-14 13:24:00+00:00,70.0,5.87,68.0,7.7,13.6,47.59359,-54.27349
2022-05-14 13:34:00+00:00,66.0,4.58,66.0,7.6,13.6,47.59359,-54.27349
2022-05-14 13:44:00+00:00,71.0,6.24,66.0,8.25,13.6,47.59359,-54.27349
2022-05-14 13:54:00+00:00,69.0,8.2,73.0,10.38,13.6,47.59359,-54.27349
2022-05-14 14:04:00+00:00,65.0,8.4,72.0,10.08,13.6,47.59359,-54.27349
2022-05-14 14:14:01+00:00,69.0,7.67,68.0,8.31,13.68,47.59359,-54.27349
2022-05-14 14:24:01+00:00,64.0,8.2,70.0,9.75,13.68,47.59359,-54.27349
2022-05-14 14:34:01+00:00,64.0,7.6,58.0,8.93,13.68,47.59359,-54.27349
2022-05-14 14:44:01+00:00,59.0,9.69,70.0,13.22,13.68,47.59359,-54.27349
2022-05-14 14:54:01+00:00,65.0,8.27,74.0,10.04,13.68,47.59359,-54.27349
2022-05-14 15:04:01+00:00,60.0,8.29,55.0,9.4,13.68,47.59359,-54.27349
2022-05-14 15:14:00+00:00,62.0,8.12,60.0,8.99,13.68,47.59359,-54.27349
2022-05-14 15:24:00+00:00,58.0,8.65,60.0,11.31,13.68,47.59359,-54.27349
2022-05-14 15:34:00+00:00,65.0,8.14,53.0,9.42,13.68,47.59359,-54.27349
2022-05-14 15:44:00+00:00,63.0,7.41,69.0,9.75,13.68,47.59359,-54.27349
2022-05-14 15:54:00+00:00,59.0,7.78,59.0,8.92,13.68,47.59359,-54.27349
2022-05-14 16:04:00+00:00,51.0,9.5,55.0,12.11,13.68,47.59359,-54.27349
2022-05-14 16:14:00+00:00,53.0,10.95,56.0,12.9,13.6,47.59359,-54.27349
2022-05-14 16:24:00+00:00,52.0,9.33,50.0,10.37,13.6,47.59359,-54.27349
2022-05-14 16:34:00+00:00,55.0,9.0,49.0,10.31,13.6,47.59359,-54.27349
2022-05-14 16:44:00+00:00,53.0,8.87,37.0,10.87,13.6,47.59359,-54.27349
2022-05-14 16:54:00+00:00,51.0,8.94,52.0,10.44,13.6,47.59359,-54.27349
2022-05-14 17:04:00+00:00,58.0,8.01,53.0,9.01,13.6,47.59359,-54.27349
2022-05-14 17:14:01+00:00,63.0,8.09,64.0,9.2,13.84,47.59359,-54.27349
2022-05-14 17:24:01+00:00,59.0,8.37,57.0,9.0,13.84,47.59359,-54.27349
2022-05-14 17:34:01+00:00,62.0,8.06,59.0,9.2,13.84,47.59359,-54.27349
2022-05-14 17:44:01+00:00,59.0,8.96,58.0,10.01,13.84,47.59359,-54.27349
2022-05-14 17:54:01+00:00,64.0,6.72,63.0,8.38,13.84,47.59359,-54.27349
2022-05-14 18:04:01+00:00,62.0,7.08,55.0,8.12,13.84,47.59359,-54.27349
2022-05-14 18:14:01+00:00,60.0,7.66,59.0,8.5,13.92,47.59359,-54.27349
2022-05-14 18:24:01+00:00,57.0,7.79,55.0,8.17,13.92,47.59359,-54.27349
2022-05-14 18:34:01+00:00,57.0,7.71,57.0,8.4,13.92,47.59359,-54.27349
2022-05-14 18:44:01+00:00,61.0,6.94,61.0,7.87,13.92,47.59359,-54.27349
2022-05-14 18:54:01+00:00,66.0,6.91,69.0,7.69,13.92,47.59359,-54.27349
2022-05-14 19:04:01+00:00,60.0,7.14,56.0,7.73,13.92,47.59359,-54.27349
2022-05-14 19:14:01+00:00,60.0,6.46,61.0,7.36,13.68,47.59359,-54.27349
2022-05-14 19:24:01+00:00,65.0,5.89,62.0,6.68,13.68,47.59359,-54.27349
2022-05-14 19:34:01+00:00,59.0,5.92,62.0,6.46,13.68,47.59359,-54.27349
2022-05-14 19:44:01+00:00,68.0,5.99,70.0,6.83,13.68,47.59359,-54.27349
2022-05-14 19:54:01+00:00,68.0,6.16,71.0,7.11,13.68,47.59359,-54.27349
2022-05-14 20:04:01+00:00,62.0,5.89,57.0,6.63,13.68,47.59359,-54.27349
2022-05-14 20:14:01+00:00,48.0,5.21,61.0,6.72,13.76,47.59359,-54.27349
2022-05-14 20:24:01+00:00,54.0,5.08,61.0,6.25,13.76,47.59359,-54.27349
2022-05-14 20:34:01+00:00,54.0,4.69,60.0,6.09,13.76,47.59359,-54.27349
2022-05-14 20:44:01+00:00,66.0,5.97,68.0,6.51,13.76,47.59359,-54.27349
2022-05-14 20:54:01+00:00,61.0,4.96,63.0,5.9,13.76,47.59359,-54.27349
2022-05-14 21:04:01+00:00,62.0,4.59,67.0,6.56,13.76,47.59359,-54.27349
2022-05-14 21:14:01+00:00,69.0,4.75,70.0,5.73,13.76,47.59359,-54.27349
2022-05-14 21:24:01+00:00,71.0,4.97,71.0,6.72,13.76,47.59359,-54.27349
2022-05-14 21:34:01+00:00,71.0,5.11,69.0,6.92,13.76,47.59359,-54.27349
2022-05-14 21:44:01+00:00,70.0,5.12,70.0,7.68,13.76,47.59359,-54.27349
2022-05-14 21:54:01+00:00,74.0,4.81,81.0,5.98,13.76,47.59359,-54.27349
2022-05-14 22:04:01+00:00,85.0,4.5,93.0,6.52,13.76,47.59359,-54.27349
2022-05-14 22:14:01+00:00,73.0,4.93,82.0,6.6,13.53,47.59359,-54.27349
2022-05-14 22:24:01+00:00,70.0,4.95,65.0,5.71,13.53,47.59359,-54.27349
2022-05-14 22:34:01+00:00,76.0,4.23,87.0,6.6,13.53,47.59359,-54.27349
2022-05-14 22:44:01+00:00,85.0,5.19,85.0,6.88,13.53,47.59359,-54.27349
2022-05-14 22:54:01+00:00,91.0,5.48,95.0,6.76,13.53,47.59359,-54.27349
2022-05-14 23:04:01+00:00,81.0,4.89,86.0,6.66,13.53,47.59359,-54.27349
2022-05-14 23:14:00+00:00,86.0,5.33,86.0,6.57,13.05,47.59359,-54.27349
2022-05-14 23:24:00+00:00,87.0,5.47,88.0,6.47,13.05,47.59359,-54.27349
2022-05-14 23:34:00+00:00,88.0,5.38,81.0,6.03,13.05,47.59359,-54.27349
2022-05-14 23:44:00+00:00,74.0,4.77,70.0,6.07,13.05,47.59359,-54.27349
2022-05-14 23:54:00+00:00,68.0,5.52,70.0,5.95,13.05,47.59359,-54.27349
